Time,TemperatureF,DewpointF,PressureIn,WindDirection,WindDirectionDegrees,WindSpeedMPH,WindSpeedGustMPH,Humidity,HourlyPrecipIn,Conditions,Clouds,dailyrainin,SoftwareType,DateUTC
2013-05-16 00:00:00,56.5,24.6,0.00,West,275,0.0,0.0,29,0.00,,,0.00,VWS V13.01,2013-05-16 05:00:00,
2013-05-16 00:01:00,56.5,24.6,0.00,West,275,0.0,0.0,29,0.00,,,0.00,VWS V13.01,2013-05-16 05:01:00,
2013-05-16 00:02:00,56.3,24.5,0.00,West,275,0.0,0.0,29,0.00,,,0.00,VWS V13.01,2013-05-16 05:02:00,
2013-05-16 00:03:00,56.3,24.5,0.00,West,275,0.0,0.0,29,0.00,,,0.00,VWS V13.01,2013-05-16 05:03:00,
2013-05-16 00:04:00,56.3,24.5,0.00,West,275,0.0,0.0,29,0.00,,,0.00,VWS V13.01,2013-05-16 05:04:00,
2013-05-16 00:05:00,56.3,24.5,0.00,West,275,0.0,0.0,29,0.00,,,0.00,VWS V13.01,2013-05-16 05:05:00,
2013-05-16 00:06:00,56.1,25.1,0.00,West,275,0.0,0.0,30,0.00,,,0.00,VWS V13.01,2013-05-16 05:06:00,
2013-05-16 00:07:00,56.1,25.1,0.00,West,275,0.0,0.0,30,0.00,,,0.00,VWS V13.01,2013-05-16 05:07:00,
2013-05-16 00:08:00,56.1,25.1,0.00,West,275,0.0,0.0,30,0.00,,,0.00,VWS V13.01,2013-05-16 05:08:00,
2013-05-16 00:09:00,56.1,25.1,0.00,West,275,0.0,0.0,30,0.00,,,0.00,VWS V13.01,2013-05-16 05:09:00,
2013-05-16 00:10:00,56.1,25.9,0.00,West,275,0.0,0.0,31,0.00,,,0.00,VWS V13.01,2013-05-16 05:10:00,
2013-05-16 00:11:00,55.9,25.8,0.00,West,275,0.0,0.0,31,0.00,,,0.00,VWS V13.01,2013-05-16 05:11:00,
2013-05-16 00:12:00,55.9,25.8,0.00,West,275,0.0,0.0,31,0.00,,,0.00,VWS V13.01,2013-05-16 05:12:00,
2013-05-16 00:13:00,55.9,25.8,0.00,West,275,0.0,0.0,31,0.00,,,0.00,VWS V13.01,2013-05-16 05:13:00,
2013-05-16 00:14:00,55.9,25.8,0.00,West,275,0.0,0.0,31,0.00,,,0.00,VWS V13.01,2013-05-16 05:14:00,
2013-05-16 00:15:00,55.9,25.8,0.00,West,275,0.0,0.0,31,0.00,,,0.00,VWS V13.01,2013-05-16 05:15:00,
2013-05-16 00:16:00,55.9,26.5,0.00,West,275,0.0,0.0,32,0.00,,,0.00,VWS V13.01,2013-05-16 05:16:00,
2013-05-16 00:17:00,55.8,26.4,0.00,West,275,0.0,0.0,32,0.00,,,0.00,VWS V13.01,2013-05-16 05:17:00,
2013-05-16 00:18:00,55.9,27.3,0.00,West,275,0.0,0.0,33,0.00,,,0.00,VWS V13.01,2013-05-16 05:18:00,
2013-05-16 00:19:00,55.9,28.0,0.00,NW,325,2.7,2.7,34,0.00,,,0.00,VWS V13.01,2013-05-16 05:19:00,
2013-05-16 00:20:00,55.9,28.7,0.00,North,357,2.2,3.1,35,0.00,,,0.00,VWS V13.01,2013-05-16 05:20:00,
2013-05-16 00:21:00,55.9,28.7,0.00,North,357,2.2,2.2,35,0.00,,,0.00,VWS V13.01,2013-05-16 05:21:00,
2013-05-16 00:22:00,56.1,28.9,0.00,North,353,0.0,2.2,35,0.00,,,0.00,VWS V13.01,2013-05-16 05:22:00,
2013-05-16 00:23:00,56.5,29.2,0.00,North,353,0.0,0.0,35,0.00,,,0.00,VWS V13.01,2013-05-16 05:23:00,
2013-05-16 00:24:00,56.7,29.3,0.00,North,353,0.0,2.7,35,0.00,,,0.00,VWS V13.01,2013-05-16 05:24:00,
2013-05-16 00:25:00,56.8,29.5,0.00,North,353,0.0,0.0,35,0.00,,,0.00,VWS V13.01,2013-05-16 05:25:00,
2013-05-16 00:26:00,57.0,29.7,0.00,North,353,0.0,2.2,35,0.00,,,0.00,VWS V13.01,2013-05-16 05:26:00,
2013-05-16 00:27:00,57.2,29.8,0.00,North,353,0.0,0.0,35,0.00,,,0.00,VWS V13.01,2013-05-16 05:27:00,
2013-05-16 00:28:00,57.4,30.0,0.00,North,353,0.0,0.0,35,0.00,,,0.00,VWS V13.01,2013-05-16 05:28:00,
2013-05-16 00:29:00,57.4,30.0,0.00,North,353,0.0,0.0,35,0.00,,,0.00,VWS V13.01,2013-05-16 05:29:00,
2013-05-16 00:30:00,57.6,29.4,0.00,North,353,0.0,0.0,34,0.00,,,0.00,VWS V13.01,2013-05-16 05:30:00,
2013-05-16 00:31:00,57.6,29.4,0.00,North,353,0.0,0.0,34,0.00,,,0.00,VWS V13.01,2013-05-16 05:31:00,
2013-05-16 00:32:00,57.6,29.4,0.00,North,353,0.0,0.0,34,0.00,,,0.00,VWS V13.01,2013-05-16 05:32:00,
2013-05-16 00:33:00,57.4,29.3,0.00,North,353,0.0,0.0,34,0.00,,,0.00,VWS V13.01,2013-05-16 05:33:00,
2013-05-16 00:34:00,57.4,29.3,0.00,North,353,0.0,0.0,34,0.00,,,0.00,VWS V13.01,2013-05-16 05:34:00,
2013-05-16 00:35:00,57.2,29.1,0.00,North,353,0.0,0.0,34,0.00,,,0.00,VWS V13.01,2013-05-16 05:35:00,
2013-05-16 00:36:00,57.2,29.1,0.00,North,353,0.0,0.0,34,0.00,,,0.00,VWS V13.01,2013-05-16 05:36:00,
2013-05-16 00:37:00,57.0,29.0,0.00,North,353,0.0,0.0,34,0.00,,,0.00,VWS V13.01,2013-05-16 05:37:00,
2013-05-16 00:38:00,56.8,28.8,0.00,North,353,0.0,0.0,34,0.00,,,0.00,VWS V13.01,2013-05-16 05:38:00,
2013-05-16 00:39:00,56.8,28.8,0.00,North,353,0.0,0.0,34,0.00,,,0.00,VWS V13.01,2013-05-16 05:39:00,
2013-05-16 00:40:00,56.7,29.3,0.00,North,353,0.0,0.0,35,0.00,,,0.00,VWS V13.01,2013-05-16 05:40:00,
2013-05-16 00:41:00,56.7,29.3,0.00,North,353,0.0,0.0,35,0.00,,,0.00,VWS V13.01,2013-05-16 05:41:00,
2013-05-16 00:42:00,56.7,29.3,0.00,North,353,0.0,0.0,35,0.00,,,0.00,VWS V13.01,2013-05-16 05:42:00,
2013-05-16 00:43:00,56.3,29.0,0.00,North,353,0.0,0.0,35,0.00,,,0.00,VWS V13.01,2013-05-16 05:43:00,
2013-05-16 00:44:00,56.3,29.0,0.00,North,353,0.0,0.0,35,0.00,,,0.00,VWS V13.01,2013-05-16 05:44:00,
2013-05-16 00:45:00,56.1,28.9,0.00,North,353,0.0,0.0,35,0.00,,,0.00,VWS V13.01,2013-05-16 05:45:00,
2013-05-16 00:46:00,55.9,28.7,0.00,North,353,0.0,0.0,35,0.00,,,0.00,VWS V13.01,2013-05-16 05:46:00,
2013-05-16 00:47:00,55.9,28.7,0.00,North,353,0.0,0.0,35,0.00,,,0.00,VWS V13.01,2013-05-16 05:47:00,
2013-05-16 00:48:00,55.8,28.5,0.00,North,353,0.0,0.0,35,0.00,,,0.00,VWS V13.01,2013-05-16 05:48:00,
2013-05-16 00:49:00,55.6,28.4,0.00,North,353,0.0,0.0,35,0.00,,,0.00,VWS V13.01,2013-05-16 05:49:00,
2013-05-16 00:50:00,55.6,29.1,0.00,North,353,0.0,0.0,36,0.00,,,0.00,VWS V13.01,2013-05-16 05:50:00,
2013-05-16 00:51:00,55.8,29.2,0.00,North,353,0.0,0.0,36,0.00,,,0.00,VWS V13.01,2013-05-16 05:51:00,
2013-05-16 00:52:00,55.9,29.4,0.00,North,353,0.0,0.0,36,0.00,,,0.00,VWS V13.01,2013-05-16 05:52:00,
2013-05-16 00:53:00,56.1,29.5,0.00,North,353,0.0,0.0,36,0.00,,,0.00,VWS V13.01,2013-05-16 05:53:00,
2013-05-16 00:54:00,56.5,29.9,0.00,North,353,0.0,0.0,36,0.00,,,0.00,VWS V13.01,2013-05-16 05:54:00,
2013-05-16 00:55:00,56.7,30.0,0.00,North,353,0.0,0.0,36,0.00,,,0.00,VWS V13.01,2013-05-16 05:55:00,
2013-05-16 00:56:00,56.8,30.2,0.00,North,353,0.0,0.0,36,0.00,,,0.00,VWS V13.01,2013-05-16 05:56:00,
2013-05-16 00:57:00,56.8,30.2,0.00,North,353,0.0,0.0,36,0.00,,,0.00,VWS V13.01,2013-05-16 05:57:00,
2013-05-16 00:58:00,57.0,29.7,0.00,North,353,0.0,0.0,35,0.00,,,0.00,VWS V13.01,2013-05-16 05:58:00,
2013-05-16 00:59:00,56.8,29.5,0.00,North,353,0.0,0.0,35,0.00,,,0.00,VWS V13.01,2013-05-16 05:59:00,
2013-05-16 01:00:00,56.8,29.5,0.00,North,353,0.0,0.0,35,0.00,,,0.00,VWS V13.01,2013-05-16 06:00:00,
2013-05-16 01:01:00,56.8,29.5,0.00,North,353,0.0,0.0,35,0.00,,,0.00,VWS V13.01,2013-05-16 06:01:00,
2013-05-16 01:02:00,56.7,29.3,0.00,North,353,0.0,0.0,35,0.00,,,0.00,VWS V13.01,2013-05-16 06:02:00,
2013-05-16 01:03:00,56.7,29.3,0.00,North,353,0.0,0.0,35,0.00,,,0.00,VWS V13.01,2013-05-16 06:03:00,
2013-05-16 01:04:00,56.3,29.0,0.00,North,353,0.0,0.0,35,0.00,,,0.00,VWS V13.01,2013-05-16 06:04:00,
2013-05-16 01:05:00,56.1,28.9,0.00,North,353,0.0,0.0,35,0.00,,,0.00,VWS V13.01,2013-05-16 06:05:00,
2013-05-16 01:06:00,55.9,28.7,0.00,North,353,0.0,0.0,35,0.00,,,0.00,VWS V13.01,2013-05-16 06:06:00,
2013-05-16 01:07:00,55.8,28.5,0.00,North,353,0.0,0.0,35,0.00,,,0.00,VWS V13.01,2013-05-16 06:07:00,
2013-05-16 01:08:00,55.6,28.4,0.00,North,353,0.0,0.0,35,0.00,,,0.00,VWS V13.01,2013-05-16 06:08:00,
2013-05-16 01:09:00,55.4,28.2,0.00,North,353,0.0,0.0,35,0.00,,,0.00,VWS V13.01,2013-05-16 06:09:00,
2013-05-16 01:10:00,55.2,28.8,0.00,North,353,0.0,0.0,36,0.00,,,0.00,VWS V13.01,2013-05-16 06:10:00,
2013-05-16 01:11:00,55.2,28.8,0.00,North,353,0.0,0.0,36,0.00,,,0.00,VWS V13.01,2013-05-16 06:11:00,
2013-05-16 01:12:00,55.0,28.6,0.00,North,353,0.0,0.0,36,0.00,,,0.00,VWS V13.01,2013-05-16 06:12:00,
2013-05-16 01:13:00,54.9,28.4,0.00,North,353,0.0,0.0,36,0.00,,,0.00,VWS V13.01,2013-05-16 06:13:00,
2013-05-16 01:14:00,54.9,28.4,0.00,North,353,0.0,0.0,36,0.00,,,0.00,VWS V13.01,2013-05-16 06:14:00,
2013-05-16 01:15:00,54.7,28.3,0.00,North,353,0.0,0.0,36,0.00,,,0.00,VWS V13.01,2013-05-16 06:15:00,
2013-05-16 01:16:00,54.7,28.3,0.00,North,353,0.0,0.0,36,0.00,,,0.00,VWS V13.01,2013-05-16 06:16:00,
2013-05-16 01:17:00,54.5,28.1,0.00,North,353,0.0,0.0,36,0.00,,,0.00,VWS V13.01,2013-05-16 06:17:00,
2013-05-16 01:18:00,54.5,28.1,0.00,North,353,0.0,0.0,36,0.00,,,0.00,VWS V13.01,2013-05-16 06:18:00,
2013-05-16 01:19:00,54.5,28.1,0.00,North,353,0.0,0.0,36,0.00,,,0.00,VWS V13.01,2013-05-16 06:19:00,
2013-05-16 01:20:00,54.5,28.1,0.00,North,353,0.0,0.0,36,0.00,,,0.00,VWS V13.01,2013-05-16 06:20:00,
2013-05-16 01:21:00,54.5,28.1,0.00,North,353,0.0,0.0,36,0.00,,,0.00,VWS V13.01,2013-05-16 06:21:00,
2013-05-16 01:22:00,54.3,28.0,0.00,North,353,0.0,0.0,36,0.00,,,0.00,VWS V13.01,2013-05-16 06:22:00,
2013-05-16 01:23:00,54.3,28.0,0.00,North,353,0.0,0.0,36,0.00,,,0.00,VWS V13.01,2013-05-16 06:23:00,
2013-05-16 01:24:00,54.3,28.0,0.00,North,353,0.0,0.0,36,0.00,,,0.00,VWS V13.01,2013-05-16 06:24:00,
2013-05-16 01:25:00,54.3,28.0,0.00,North,353,0.0,0.0,36,0.00,,,0.00,VWS V13.01,2013-05-16 06:25:00,
2013-05-16 01:26:00,54.3,28.0,0.00,North,353,0.0,0.0,36,0.00,,,0.00,VWS V13.01,2013-05-16 06:26:00,
2013-05-16 01:27:00,54.1,27.8,0.00,North,353,0.0,0.0,36,0.00,,,0.00,VWS V13.01,2013-05-16 06:27:00,
2013-05-16 01:28:00,54.1,27.8,0.00,North,353,0.0,0.0,36,0.00,,,0.00,VWS V13.01,2013-05-16 06:28:00,
2013-05-16 01:29:00,54.1,28.5,0.00,North,353,0.0,0.0,37,0.00,,,0.00,VWS V13.01,2013-05-16 06:29:00,
2013-05-16 01:30:00,54.1,28.5,0.00,North,353,0.0,0.0,37,0.00,,,0.00,VWS V13.01,2013-05-16 06:30:00,
2013-05-16 01:31:00,54.1,28.5,0.00,North,353,0.0,0.0,37,0.00,,,0.00,VWS V13.01,2013-05-16 06:31:00,
2013-05-16 01:32:00,54.0,28.3,0.00,North,353,0.0,0.0,37,0.00,,,0.00,VWS V13.01,2013-05-16 06:32:00,
2013-05-16 01:33:00,54.0,28.3,0.00,North,353,0.0,0.0,37,0.00,,,0.00,VWS V13.01,2013-05-16 06:33:00,
2013-05-16 01:34:00,54.0,28.3,0.00,North,353,0.0,0.0,37,0.00,,,0.00,VWS V13.01,2013-05-16 06:34:00,
2013-05-16 01:35:00,53.8,28.1,0.00,North,353,0.0,0.0,37,0.00,,,0.00,VWS V13.01,2013-05-16 06:35:00,
2013-05-16 01:36:00,53.8,28.1,0.00,North,353,0.0,0.0,37,0.00,,,0.00,VWS V13.01,2013-05-16 06:36:00,
2013-05-16 01:37:00,53.8,28.1,0.00,North,353,0.0,0.0,37,0.00,,,0.00,VWS V13.01,2013-05-16 06:37:00,
2013-05-16 01:38:00,53.8,28.8,0.00,North,353,0.0,0.0,38,0.00,,,0.00,VWS V13.01,2013-05-16 06:38:00,
2013-05-16 01:39:00,53.6,28.6,0.00,North,353,0.0,0.0,38,0.00,,,0.00,VWS V13.01,2013-05-16 06:39:00,
2013-05-16 01:40:00,53.6,28.6,0.00,North,353,0.0,0.0,38,0.00,,,0.00,VWS V13.01,2013-05-16 06:40:00,
2013-05-16 01:41:00,53.6,28.6,0.00,North,353,0.0,0.0,38,0.00,,,0.00,VWS V13.01,2013-05-16 06:41:00,
2013-05-16 01:42:00,53.6,28.6,0.00,North,353,0.0,0.0,38,0.00,,,0.00,VWS V13.01,2013-05-16 06:42:00,
2013-05-16 01:43:00,53.6,28.6,0.00,North,353,0.0,0.0,38,0.00,,,0.00,VWS V13.01,2013-05-16 06:43:00,
2013-05-16 01:44:00,53.6,28.6,0.00,North,353,0.0,0.0,38,0.00,,,0.00,VWS V13.01,2013-05-16 06:44:00,
2013-05-16 01:45:00,53.6,29.3,0.00,North,353,0.0,0.0,39,0.00,,,0.00,VWS V13.01,2013-05-16 06:45:00,
2013-05-16 01:46:00,53.6,29.3,0.00,North,353,0.0,0.0,39,0.00,,,0.00,VWS V13.01,2013-05-16 06:46:00,
2013-05-16 01:47:00,53.4,29.1,0.00,North,353,0.0,0.0,39,0.00,,,0.00,VWS V13.01,2013-05-16 06:47:00,
2013-05-16 01:48:00,53.4,29.1,0.00,North,353,0.0,0.0,39,0.00,,,0.00,VWS V13.01,2013-05-16 06:48:00,
2013-05-16 01:49:00,53.4,29.1,0.00,North,353,0.0,0.0,39,0.00,,,0.00,VWS V13.01,2013-05-16 06:49:00,
2013-05-16 01:50:00,53.4,29.1,0.00,North,353,0.0,0.0,39,0.00,,,0.00,VWS V13.01,2013-05-16 06:50:00,
2013-05-16 01:51:00,53.4,29.1,0.00,North,353,0.0,0.0,39,0.00,,,0.00,VWS V13.01,2013-05-16 06:51:00,
2013-05-16 01:52:00,53.2,29.6,0.00,North,353,0.0,0.0,40,0.00,,,0.00,VWS V13.01,2013-05-16 06:52:00,
2013-05-16 01:53:00,53.2,29.6,0.00,North,353,0.0,0.0,40,0.00,,,0.00,VWS V13.01,2013-05-16 06:53:00,
2013-05-16 01:54:00,53.2,29.6,0.00,North,353,0.0,0.0,40,0.00,,,0.00,VWS V13.01,2013-05-16 06:54:00,
2013-05-16 01:55:00,53.2,29.6,0.00,North,353,0.0,0.0,40,0.00,,,0.00,VWS V13.01,2013-05-16 06:55:00,
2013-05-16 01:56:00,53.2,29.6,0.00,North,353,0.0,0.0,40,0.00,,,0.00,VWS V13.01,2013-05-16 06:56:00,
2013-05-16 01:57:00,53.1,29.4,0.00,North,353,0.0,0.0,40,0.00,,,0.00,VWS V13.01,2013-05-16 06:57:00,
2013-05-16 01:58:00,53.1,29.4,0.00,North,353,0.0,0.0,40,0.00,,,0.00,VWS V13.01,2013-05-16 06:58:00,
2013-05-16 01:59:00,53.1,29.4,0.00,North,353,0.0,0.0,40,0.00,,,0.00,VWS V13.01,2013-05-16 06:59:00,
2013-05-16 02:00:00,53.1,29.4,0.00,North,353,0.0,0.0,40,0.00,,,0.00,VWS V13.01,2013-05-16 07:00:00,
2013-05-16 02:01:00,53.1,29.4,0.00,North,353,0.0,0.0,40,0.00,,,0.00,VWS V13.01,2013-05-16 07:01:00,
2013-05-16 02:02:00,52.9,29.2,0.00,North,353,0.0,0.0,40,0.00,,,0.00,VWS V13.01,2013-05-16 07:02:00,
2013-05-16 02:03:00,52.9,29.2,0.00,North,353,0.0,0.0,40,0.00,,,0.00,VWS V13.01,2013-05-16 07:03:00,
2013-05-16 02:04:00,52.9,29.2,0.00,North,353,0.0,0.0,40,0.00,,,0.00,VWS V13.01,2013-05-16 07:04:00,
2013-05-16 02:05:00,52.7,29.1,0.00,North,353,0.0,0.0,40,0.00,,,0.00,VWS V13.01,2013-05-16 07:05:00,
2013-05-16 02:06:00,52.7,29.1,0.00,North,353,0.0,0.0,40,0.00,,,0.00,VWS V13.01,2013-05-16 07:06:00,
2013-05-16 02:07:00,52.5,29.5,0.00,North,353,0.0,0.0,41,0.00,,,0.00,VWS V13.01,2013-05-16 07:07:00,
2013-05-16 02:08:00,52.5,29.5,0.00,North,353,0.0,0.0,41,0.00,,,0.00,VWS V13.01,2013-05-16 07:08:00,
2013-05-16 02:09:00,52.5,29.5,0.00,North,353,0.0,0.0,41,0.00,,,0.00,VWS V13.01,2013-05-16 07:09:00,
2013-05-16 02:10:00,52.3,29.4,0.00,North,353,0.0,0.0,41,0.00,,,0.00,VWS V13.01,2013-05-16 07:10:00,
2013-05-16 02:11:00,52.2,29.2,0.00,North,353,0.0,0.0,41,0.00,,,0.00,VWS V13.01,2013-05-16 07:11:00,
2013-05-16 02:12:00,52.2,29.2,0.00,North,353,0.0,0.0,41,0.00,,,0.00,VWS V13.01,2013-05-16 07:12:00,
2013-05-16 02:13:00,52.2,29.2,0.00,North,353,0.0,0.0,41,0.00,,,0.00,VWS V13.01,2013-05-16 07:13:00,
2013-05-16 02:14:00,52.0,29.0,0.00,North,353,0.0,0.0,41,0.00,,,0.00,VWS V13.01,2013-05-16 07:14:00,
2013-05-16 02:15:00,52.0,29.0,0.00,North,353,0.0,0.0,41,0.00,,,0.00,VWS V13.01,2013-05-16 07:15:00,
2013-05-16 02:16:00,52.0,29.6,0.00,North,353,0.0,0.0,42,0.00,,,0.00,VWS V13.01,2013-05-16 07:16:00,
2013-05-16 02:17:00,52.0,29.6,0.00,North,353,0.0,0.0,42,0.00,,,0.00,VWS V13.01,2013-05-16 07:17:00,
2013-05-16 02:18:00,52.0,29.6,0.00,North,353,0.0,0.0,42,0.00,,,0.00,VWS V13.01,2013-05-16 07:18:00,
2013-05-16 02:19:00,52.0,29.6,0.00,North,353,0.0,0.0,42,0.00,,,0.00,VWS V13.01,2013-05-16 07:19:00,
2013-05-16 02:20:00,52.0,29.6,0.00,North,353,0.0,0.0,42,0.00,,,0.00,VWS V13.01,2013-05-16 07:20:00,
2013-05-16 02:21:00,52.0,29.6,0.00,North,353,0.0,0.0,42,0.00,,,0.00,VWS V13.01,2013-05-16 07:21:00,
2013-05-16 02:22:00,52.0,29.6,0.00,North,353,0.0,0.0,42,0.00,,,0.00,VWS V13.01,2013-05-16 07:22:00,
2013-05-16 02:23:00,52.0,29.6,0.00,North,353,0.0,0.0,42,0.00,,,0.00,VWS V13.01,2013-05-16 07:23:00,
2013-05-16 02:24:00,52.0,29.6,0.00,North,353,0.0,0.0,42,0.00,,,0.00,VWS V13.01,2013-05-16 07:24:00,
2013-05-16 02:25:00,51.8,29.5,0.00,North,353,0.0,0.0,42,0.00,,,0.00,VWS V13.01,2013-05-16 07:25:00,
2013-05-16 02:26:00,51.8,29.5,0.00,North,353,0.0,0.0,42,0.00,,,0.00,VWS V13.01,2013-05-16 07:26:00,
2013-05-16 02:27:00,51.8,29.5,0.00,North,353,0.0,0.0,42,0.00,,,0.00,VWS V13.01,2013-05-16 07:27:00,
2013-05-16 02:28:00,51.8,29.5,0.00,North,353,0.0,0.0,42,0.00,,,0.00,VWS V13.01,2013-05-16 07:28:00,
2013-05-16 02:29:00,51.8,29.5,0.00,North,353,0.0,0.0,42,0.00,,,0.00,VWS V13.01,2013-05-16 07:29:00,
2013-05-16 02:30:00,51.8,29.5,0.00,North,353,0.0,0.0,42,0.00,,,0.00,VWS V13.01,2013-05-16 07:30:00,
2013-05-16 02:31:00,51.8,29.5,0.00,North,353,0.0,0.0,42,0.00,,,0.00,VWS V13.01,2013-05-16 07:31:00,
2013-05-16 02:32:00,51.8,29.5,0.00,North,353,0.0,0.0,42,0.00,,,0.00,VWS V13.01,2013-05-16 07:32:00,
2013-05-16 02:33:00,51.6,29.9,0.00,North,353,0.0,0.0,43,0.00,,,0.00,VWS V13.01,2013-05-16 07:33:00,
2013-05-16 02:34:00,51.6,29.9,0.00,North,353,0.0,0.0,43,0.00,,,0.00,VWS V13.01,2013-05-16 07:34:00,
2013-05-16 02:35:00,51.6,29.9,0.00,North,353,0.0,0.0,43,0.00,,,0.00,VWS V13.01,2013-05-16 07:35:00,
2013-05-16 02:36:00,51.6,29.9,0.00,North,353,0.0,0.0,43,0.00,,,0.00,VWS V13.01,2013-05-16 07:36:00,
2013-05-16 02:37:00,51.6,29.9,0.00,North,353,0.0,0.0,43,0.00,,,0.00,VWS V13.01,2013-05-16 07:37:00,
2013-05-16 02:38:00,51.6,29.9,0.00,North,353,0.0,0.0,43,0.00,,,0.00,VWS V13.01,2013-05-16 07:38:00,
2013-05-16 02:39:00,51.4,29.7,0.00,North,353,0.0,0.0,43,0.00,,,0.00,VWS V13.01,2013-05-16 07:39:00,
2013-05-16 02:40:00,51.4,29.7,0.00,North,353,0.0,0.0,43,0.00,,,0.00,VWS V13.01,2013-05-16 07:40:00,
2013-05-16 02:41:00,51.3,29.5,0.00,North,353,0.0,0.0,43,0.00,,,0.00,VWS V13.01,2013-05-16 07:41:00,
2013-05-16 02:42:00,51.3,29.5,0.00,North,353,0.0,0.0,43,0.00,,,0.00,VWS V13.01,2013-05-16 07:42:00,
2013-05-16 02:43:00,51.1,29.4,0.00,North,353,0.0,0.0,43,0.00,,,0.00,VWS V13.01,2013-05-16 07:43:00,
2013-05-16 02:44:00,51.1,29.4,0.00,North,353,0.0,0.0,43,0.00,,,0.00,VWS V13.01,2013-05-16 07:44:00,
2013-05-16 02:45:00,50.9,29.2,0.00,North,353,0.0,0.0,43,0.00,,,0.00,VWS V13.01,2013-05-16 07:45:00,
2013-05-16 02:46:00,50.7,29.1,0.00,North,353,0.0,0.0,43,0.00,,,0.00,VWS V13.01,2013-05-16 07:46:00,
2013-05-16 02:47:00,50.7,29.1,0.00,North,353,0.0,0.0,43,0.00,,,0.00,VWS V13.01,2013-05-16 07:47:00,
2013-05-16 02:48:00,50.7,29.1,0.00,North,353,0.0,0.0,43,0.00,,,0.00,VWS V13.01,2013-05-16 07:48:00,
2013-05-16 02:49:00,50.4,28.7,0.00,North,353,0.0,0.0,43,0.00,,,0.00,VWS V13.01,2013-05-16 07:49:00,
2013-05-16 02:50:00,50.4,28.7,0.00,North,353,0.0,0.0,43,0.00,,,0.00,VWS V13.01,2013-05-16 07:50:00,
2013-05-16 02:51:00,50.2,28.6,0.00,North,353,0.0,0.0,43,0.00,,,0.00,VWS V13.01,2013-05-16 07:51:00,
2013-05-16 02:52:00,50.2,28.6,0.00,North,353,0.0,0.0,43,0.00,,,0.00,VWS V13.01,2013-05-16 07:52:00,
2013-05-16 02:53:00,50.2,29.1,0.00,North,353,0.0,0.0,44,0.00,,,0.00,VWS V13.01,2013-05-16 07:53:00,
2013-05-16 02:54:00,50.2,29.1,0.00,North,353,0.0,0.0,44,0.00,,,0.00,VWS V13.01,2013-05-16 07:54:00,
2013-05-16 02:55:00,50.0,29.0,0.00,North,353,0.0,0.0,44,0.00,,,0.00,VWS V13.01,2013-05-16 07:55:00,
2013-05-16 02:56:00,50.0,29.0,0.00,North,353,0.0,0.0,44,0.00,,,0.00,VWS V13.01,2013-05-16 07:56:00,
2013-05-16 02:57:00,50.0,29.0,0.00,North,353,0.0,0.0,44,0.00,,,0.00,VWS V13.01,2013-05-16 07:57:00,
2013-05-16 02:58:00,50.0,29.0,0.00,North,353,0.0,0.0,44,0.00,,,0.00,VWS V13.01,2013-05-16 07:58:00,
2013-05-16 02:59:00,50.0,29.5,0.00,North,353,0.0,0.0,45,0.00,,,0.00,VWS V13.01,2013-05-16 07:59:00,
2013-05-16 03:00:00,50.0,29.5,0.00,North,353,0.0,0.0,45,0.00,,,0.00,VWS V13.01,2013-05-16 08:00:00,
2013-05-16 03:01:00,50.0,29.5,0.00,North,353,0.0,0.0,45,0.00,,,0.00,VWS V13.01,2013-05-16 08:01:00,
2013-05-16 03:02:00,50.0,29.5,0.00,North,353,0.0,0.0,45,0.00,,,0.00,VWS V13.01,2013-05-16 08:02:00,
2013-05-16 03:03:00,50.0,30.0,0.00,North,353,0.0,0.0,46,0.00,,,0.00,VWS V13.01,2013-05-16 08:03:00,
2013-05-16 03:04:00,50.2,30.2,0.00,North,353,0.0,0.0,46,0.00,,,0.00,VWS V13.01,2013-05-16 08:04:00,
2013-05-16 03:05:00,50.2,30.2,0.00,North,353,0.0,0.0,46,0.00,,,0.00,VWS V13.01,2013-05-16 08:05:00,
2013-05-16 03:06:00,50.2,30.2,0.00,North,353,0.0,0.0,46,0.00,,,0.00,VWS V13.01,2013-05-16 08:06:00,
2013-05-16 03:07:00,50.2,30.2,0.00,North,353,0.0,0.0,46,0.00,,,0.00,VWS V13.01,2013-05-16 08:07:00,
2013-05-16 03:08:00,50.2,30.2,0.00,North,353,0.0,0.0,46,0.00,,,0.00,VWS V13.01,2013-05-16 08:08:00,
2013-05-16 03:09:00,50.2,30.2,0.00,North,353,0.0,0.0,46,0.00,,,0.00,VWS V13.01,2013-05-16 08:09:00,
2013-05-16 03:10:00,50.2,30.2,0.00,North,353,0.0,0.0,46,0.00,,,0.00,VWS V13.01,2013-05-16 08:10:00,
2013-05-16 03:11:00,50.2,30.2,0.00,North,353,0.0,0.0,46,0.00,,,0.00,VWS V13.01,2013-05-16 08:11:00,
2013-05-16 03:12:00,50.2,30.2,0.00,North,353,0.0,0.0,46,0.00,,,0.00,VWS V13.01,2013-05-16 08:12:00,
2013-05-16 03:13:00,50.2,30.2,0.00,North,353,0.0,0.0,46,0.00,,,0.00,VWS V13.01,2013-05-16 08:13:00,
2013-05-16 03:14:00,50.2,30.2,0.00,North,353,0.0,0.0,46,0.00,,,0.00,VWS V13.01,2013-05-16 08:14:00,
2013-05-16 03:15:00,50.2,30.2,0.00,North,353,0.0,0.0,46,0.00,,,0.00,VWS V13.01,2013-05-16 08:15:00,
2013-05-16 03:16:00,50.2,30.2,0.00,North,353,0.0,0.0,46,0.00,,,0.00,VWS V13.01,2013-05-16 08:16:00,
2013-05-16 03:17:00,50.2,30.2,0.00,North,353,0.0,0.0,46,0.00,,,0.00,VWS V13.01,2013-05-16 08:17:00,
2013-05-16 03:18:00,50.0,30.6,0.00,North,353,0.0,3.1,47,0.00,,,0.00,VWS V13.01,2013-05-16 08:18:00,
2013-05-16 03:19:00,50.0,30.6,0.00,North,353,0.0,0.0,47,0.00,,,0.00,VWS V13.01,2013-05-16 08:19:00,
2013-05-16 03:20:00,49.8,30.4,0.00,North,353,0.0,0.0,47,0.00,,,0.00,VWS V13.01,2013-05-16 08:20:00,
2013-05-16 03:21:00,49.8,30.4,0.00,North,353,0.0,0.0,47,0.00,,,0.00,VWS V13.01,2013-05-16 08:21:00,
2013-05-16 03:22:00,49.8,30.4,0.00,North,353,0.0,0.0,47,0.00,,,0.00,VWS V13.01,2013-05-16 08:22:00,